| time (UTC) | temp F | wind direction | speed MPH | gust MPH | rain 1hr in | rain 24hr in | rain mn in | humidity % | barometer mb |
| 20260510105133 | 73 | 146 | 2.0 | 4.0 | 0.00 | 0.00 | 0.00 | 97 | 1010.4 |
| 20260510104402 | 73 | 178 | 2.0 | 4.0 | 0.00 | 0.00 | 0.00 | 97 | 1010.4 |
| 20260510103901 | 73 | 138 | 3.0 | 6.0 | 0.00 | 0.00 | 0.00 | 97 | 1010.3 |
| 20260510103401 | 72 | 173 | 3.0 | 6.0 | 0.00 | 0.00 | 0.00 | 97 | 1010.4 |
| 20260510102901 | 72 | 142 | 3.0 | 6.0 | 0.00 | 0.00 | 0.00 | 97 | 1010.3 |
| 20260510102405 | 72 | 145 | 3.0 | 7.0 | 0.00 | 0.00 | 0.00 | 97 | 1010.3 |
| 20260510102132 | 72 | 159 | 4.0 | 7.0 | 0.00 | 0.00 | 0.00 | 97 | 1010.2 |
| 20260510101630 | 72 | 168 | 3.0 | 6.0 | 0.00 | 0.00 | 0.00 | 97 | 1010.3 |
| 20260510100900 | 71 | 155 | 3.0 | 5.0 | 0.00 | 0.00 | 0.00 | 97 | 1010.3 |
| 20260510100401 | 71 | 156 | 2.0 | 5.0 | 0.00 | 0.00 | 0.00 | 97 | 1010.4 |
| 20260510095901 | 71 | 132 | 2.0 | 5.0 | 0.00 | 0.00 | 0.00 | 97 | 1010.5 |
| 20260510095629 | 71 | 144 | 2.0 | 4.0 | 0.00 | 0.00 | 0.00 | 97 | 1010.3 |
| 20260510094902 | 71 | 148 | 2.0 | 3.0 | 0.00 | 0.00 | 0.00 | 97 | 1010.4 |
| 20260510094401 | 71 | 116 | 1.0 | 2.0 | 0.00 | 0.00 | 0.00 | 96 | 1010.4 |
| 20260510093900 | 71 | 144 | 0.0 | 1.0 | 0.00 | 0.00 | 0.00 | 96 | 1010.4 |
| 20260510093401 | 71 | 144 | 1.0 | 2.0 | 0.00 | 0.00 | 0.00 | 97 | 1010.3 |
| 20260510092901 | 71 | 144 | 1.0 | 4.0 | 0.00 | 0.00 | 0.00 | 97 | 1010.3 |
| 20260510092401 | 71 | 144 | 2.0 | 4.0 | 0.00 | 0.00 | 0.00 | 97 | 1010.3 |
| 20260510091901 | 71 | 151 | 1.0 | 3.0 | 0.00 | 0.00 | 0.00 | 96 | 1010.3 |
| 20260510091401 | 71 | 132 | 2.0 | 3.0 | 0.00 | 0.00 | 0.00 | 96 | 1010.3 |
| 20260510090901 | 71 | 132 | 2.0 | 3.0 | 0.00 | 0.00 | 0.00 | 96 | 1010.3 |
| 20260510090403 | 71 | 132 | 2.0 | 4.0 | 0.00 | 0.00 | 0.00 | 96 | 1010.3 |
| 20260510090356 | 70 | 154 | 2.0 | 4.0 | 0.00 | 0.00 | 0.00 | 96 | 1010.2 |
| 20260510085403 | 70 | 180 | 1.0 | 4.0 | 0.00 | 0.00 | 0.00 | 96 | 1010.3 |
| 20260510084902 | 70 | 169 | 1.0 | 2.0 | 0.00 | 0.00 | 0.00 | 96 | 1010.3 |
| 20260510084623 | 70 | 82 | 0.0 | 0.0 | 0.00 | 0.00 | 0.00 | 96 | 1010.4 |
| 20260510084603 | 70 | 82 | 0.0 | 1.0 | 0.00 | 0.00 | 0.00 | 96 | 1010.5 |
| 20260510083403 | 70 | 82 | 0.0 | 0.0 | 0.00 | 0.00 | 0.00 | 95 | 1010.5 |
| 20260510082902 | 70 | 82 | 0.0 | 0.0 | 0.00 | 0.00 | 0.00 | 95 | 1010.5 |
| 20260510082400 | 70 | 82 | 0.0 | 1.0 | 0.00 | 0.00 | 0.00 | 95 | 1010.5 |
| 20260510081858 | 70 | 82 | 0.0 | 1.0 | 0.00 | 0.00 | 0.00 | 96 | 1010.5 |
| 20260510081357 | 70 | 82 | 0.0 | 0.0 | 0.00 | 0.00 | 0.00 | 96 | 1010.4 |
| 20260510080856 | 70 | 82 | 0.0 | 0.0 | 0.00 | 0.00 | 0.00 | 96 | 1010.5 |
| 20260510080353 | 70 | 82 | 0.0 | 0.0 | 0.00 | 0.00 | 0.00 | 96 | 1010.5 |
| 20260510075854 | 70 | 82 | 0.0 | 0.0 | 0.00 | 0.00 | 0.00 | 96 | 1010.4 |
| 20260510075619 | 70 | 82 | 0.0 | 1.0 | 0.00 | 0.00 | 0.00 | 96 | 1010.4 |
| 20260510075113 | 70 | 82 | 0.0 | 1.0 | 0.00 | 0.00 | 0.00 | 95 | 1010.5 |
| 20260510074353 | 70 | 82 | 0.0 | 1.0 | 0.00 | 0.00 | 0.00 | 96 | 1010.5 |
| 20260510073853 | 70 | 82 | 0.0 | 1.0 | 0.00 | 0.00 | 0.00 | 96 | 1010.3 |
| 20260510073353 | 70 | 82 | 0.0 | 1.0 | 0.00 | 0.00 | 0.00 | 96 | 1010.3 |
| 20260510072853 | 70 | 82 | 0.0 | 1.0 | 0.00 | 0.00 | 0.00 | 96 | 1010.3 |
| 20260510072348 | 70 | 82 | 1.0 | 2.0 | 0.00 | 0.00 | 0.00 | 96 | 1010.4 |
| 20260510071849 | 70 | 82 | 1.0 | 2.0 | 0.00 | 0.00 | 0.00 | 96 | 1010.4 |
| 20260510071349 | 70 | 82 | 1.0 | 2.0 | 0.00 | 0.00 | 0.00 | 95 | 1010.4 |
| 20260510071112 | 70 | 82 | 1.0 | 2.0 | 0.00 | 0.00 | 0.00 | 95 | 1010.5 |
| 20260510070348 | 70 | 82 | 1.0 | 2.0 | 0.00 | 0.00 | 0.00 | 95 | 1010.3 |
| 20260510070114 | 70 | 82 | 1.0 | 3.0 | 0.00 | 0.00 | 0.00 | 95 | 1010.4 |
| 20260510065347 | 70 | 82 | 2.0 | 3.0 | 0.00 | 0.00 | 0.00 | 95 | 1010.4 |
| 20260510064848 | 70 | 82 | 2.0 | 4.0 | 0.00 | 0.00 | 0.00 | 94 | 1010.5 |
| 20260510064616 | 70 | 93 | 2.0 | 4.0 | 0.00 | 0.00 | 0.00 | 94 | 1010.5 |
| 20260510063844 | 70 | 121 | 2.0 | 3.0 | 0.00 | 0.00 | 0.00 | 94 | 1010.5 |
| 20260510063343 | 70 | 138 | 2.0 | 3.0 | 0.00 | 0.00 | 0.00 | 94 | 1010.6 |
| 20260510062843 | 71 | 126 | 2.0 | 3.0 | 0.00 | 0.00 | 0.00 | 94 | 1010.7 |
| 20260510062343 | 71 | 103 | 3.0 | 4.0 | 0.00 | 0.00 | 0.00 | 93 | 1010.7 |
| 20260510061844 | 71 | 92 | 3.0 | 4.0 | 0.00 | 0.00 | 0.00 | 93 | 1010.8 |
| 20260510061343 | 71 | 131 | 2.0 | 4.0 | 0.00 | 0.00 | 0.00 | 93 | 1010.7 |
| 20260510060844 | 71 | 135 | 2.0 | 5.0 | 0.00 | 0.00 | 0.00 | 93 | 1010.8 |
| 20260510060344 | 72 | 141 | 2.0 | 5.0 | 0.00 | 0.00 | 0.00 | 93 | 1010.7 |
| 20260510055844 | 72 | 167 | 2.0 | 4.0 | 0.00 | 0.00 | 0.00 | 93 | 1010.7 |
| 20260510055339 | 72 | 130 | 1.0 | 3.0 | 0.00 | 0.00 | 0.00 | 93 | 1010.9 |
| 20260510055109 | 72 | 157 | 1.0 | 2.0 | 0.00 | 0.00 | 0.00 | 92 | 1010.8 |
| 20260510054338 | 72 | 126 | 1.0 | 3.0 | 0.00 | 0.00 | 0.00 | 92 | 1011.0 |
| 20260510053838 | 72 | 126 | 2.0 | 3.0 | 0.00 | 0.00 | 0.00 | 93 | 1010.9 |
| 20260510053338 | 72 | 126 | 2.0 | 3.0 | 0.00 | 0.00 | 0.00 | 93 | 1011.1 |
| 20260510052838 | 72 | 106 | 2.0 | 4.0 | 0.00 | 0.00 | 0.00 | 93 | 1011.1 |
| 20260510052337 | 72 | 106 | 3.0 | 4.0 | 0.00 | 0.00 | 0.00 | 93 | 1011.2 |
| 20260510051837 | 73 | 109 | 2.0 | 4.0 | 0.00 | 0.00 | 0.00 | 92 | 1011.2 |
| 20260510051336 | 73 | 84 | 3.0 | 7.0 | 0.00 | 0.00 | 0.00 | 92 | 1011.3 |
| 20260510050835 | 73 | 94 | 2.0 | 7.0 | 0.00 | 0.00 | 0.00 | 92 | 1011.3 |
| 20260510050335 | 73 | 87 | 2.0 | 6.0 | 0.00 | 0.00 | 0.00 | 92 | 1011.2 |
| 20260510045833 | 73 | 88 | 2.0 | 6.0 | 0.00 | 0.00 | 0.00 | 92 | 1011.2 |
| 20260510045334 | 73 | 71 | 3.0 | 7.0 | 0.00 | 0.00 | 0.00 | 92 | 1011.0 |
| 20260510044834 | 73 | 87 | 3.0 | 7.0 | 0.00 | 0.00 | 0.00 | 92 | 1011.1 |
| 20260510044330 | 73 | 89 | 3.0 | 6.0 | 0.00 | 0.00 | 0.00 | 91 | 1011.1 |
| 20260510043830 | 73 | 82 | 3.0 | 6.0 | 0.00 | 0.00 | 0.00 | 91 | 1011.0 |
| 20260510043330 | 73 | 78 | 3.0 | 7.0 | 0.00 | 0.00 | 0.00 | 91 | 1010.9 |
| 20260510043057 | 73 | 99 | 2.0 | 7.0 | 0.00 | 0.00 | 0.00 | 91 | 1010.9 |
| 20260510042330 | 73 | 69 | 2.0 | 4.0 | 0.00 | 0.00 | 0.00 | 92 | 1011.0 |
| 20260510042056 | 74 | 70 | 2.0 | 3.0 | 0.00 | 0.00 | 0.00 | 92 | 1010.9 |
| 20260510041330 | 74 | 57 | 3.0 | 6.0 | 0.00 | 0.00 | 0.00 | 92 | 1011.0 |
| 20260510041107 | 74 | 73 | 5.0 | 9.0 | 0.00 | 0.00 | 0.00 | 92 | 1010.9 |
| 20260510040330 | 74 | 118 | 6.0 | 9.0 | 0.00 | 0.00 | 0.00 | 92 | 1010.6 |
| 20260510040059 | 74 | 127 | 5.0 | 9.0 | 0.00 | 0.00 | 0.00 | 91 | 1010.5 |
| 20260510035330 | 74 | 137 | 4.0 | 7.0 | 0.00 | 0.00 | 0.00 | 91 | 1010.5 |
| 20260510034829 | 75 | 146 | 5.0 | 9.0 | 0.00 | 0.00 | 0.00 | 91 | 1010.5 |
| 20260510034329 | 75 | 138 | 6.0 | 10.0 | 0.00 | 0.00 | 0.00 | 91 | 1010.3 |
| 20260510033829 | 75 | 126 | 6.0 | 10.0 | 0.00 | 0.00 | 0.00 | 91 | 1010.4 |
| 20260510033330 | 75 | 111 | 5.0 | 9.0 | 0.00 | 0.00 | 0.00 | 90 | 1010.4 |
| 20260510032834 | 75 | 85 | 5.0 | 11.0 | 0.00 | 0.00 | 0.00 | 89 | 1010.4 |
| 20260510032334 | 75 | 82 | 5.0 | 11.0 | 0.00 | 0.00 | 0.00 | 89 | 1010.4 |
| 20260510031833 | 74 | 69 | 3.0 | 11.0 | 0.00 | 0.00 | 0.00 | 89 | 1010.4 |
| 20260510031333 | 74 | 73 | 1.0 | 4.0 | 0.00 | 0.00 | 0.00 | 87 | 1010.4 |
| 20260510030834 | 74 | 70 | 1.0 | 2.0 | 0.00 | 0.00 | 0.00 | 84 | 1010.2 |
| 20260510030333 | 74 | 50 | 1.0 | 4.0 | 0.00 | 0.00 | 0.00 | 81 | 1010.0 |
| 20260510025833 | 74 | 50 | 2.0 | 7.0 | 0.00 | 0.00 | 0.00 | 79 | 1009.8 |
| 20260510025334 | 75 | 88 | 3.0 | 7.0 | 0.00 | 0.00 | 0.00 | 77 | 1009.5 |
| 20260510025057 | 76 | 119 | 4.0 | 7.0 | 0.00 | 0.00 | 0.00 | 76 | 1009.1 |
| 20260510024333 | 76 | 140 | 4.0 | 7.0 | 0.00 | 0.00 | 0.00 | 75 | 1009.0 |
| 20260510023833 | 76 | 151 | 3.0 | 6.0 | 0.00 | 0.00 | 0.00 | 74 | 1009.0 |
| 20260510023559 | 76 | 173 | 3.0 | 6.0 | 0.00 | 0.00 | 0.00 | 74 | 1009.1 |
| 20260510022832 | 76 | 184 | 2.0 | 5.0 | 0.00 | 0.00 | 0.00 | 74 | 1009.1 |
| 20260510022334 | 76 | 167 | 1.0 | 4.0 | 0.00 | 0.00 | 0.00 | 74 | 1009.2 |
| 20260510021834 | 77 | 123 | 1.0 | 3.0 | 0.00 | 0.00 | 0.00 | 74 | 1009.3 |
| 20260510021556 | 77 | 123 | 2.0 | 3.0 | 0.00 | 0.00 | 0.00 | 74 | 1009.3 |
| 20260510020833 | 77 | 121 | 2.0 | 6.0 | 0.00 | 0.00 | 0.00 | 73 | 1009.1 |
| 20260510020333 | 78 | 142 | 2.0 | 6.0 | 0.00 | 0.00 | 0.00 | 72 | 1008.9 |
| 20260510015833 | 78 | 148 | 2.0 | 5.0 | 0.00 | 0.00 | 0.00 | 71 | 1008.8 |
| 20260510015325 | 79 | 167 | 3.0 | 5.0 | 0.00 | 0.00 | 0.00 | 71 | 1008.7 |
| 20260510014818 | 79 | 131 | 2.0 | 4.0 | 0.00 | 0.00 | 0.00 | 69 | 1008.6 |
| 20260510014312 | 79 | 170 | 1.0 | 4.0 | 0.00 | 0.00 | 0.00 | 68 | 1008.5 |
| 20260510014040 | 80 | 170 | 2.0 | 5.0 | 0.00 | 0.00 | 0.00 | 68 | 1008.6 |
| 20260510013305 | 80 | 180 | 2.0 | 6.0 | 0.00 | 0.00 | 0.00 | 68 | 1008.6 |
| 20260510012803 | 80 | 163 | 3.0 | 6.0 | 0.00 | 0.00 | 0.00 | 67 | 1008.3 |
| 20260510012307 | 81 | 143 | 4.0 | 8.0 | 0.00 | 0.00 | 0.00 | 66 | 1008.2 |
| 20260510011800 | 81 | 126 | 4.0 | 8.0 | 0.00 | 0.00 | 0.00 | 65 | 1008.0 |
| 20260510011301 | 82 | 153 | 4.0 | 7.0 | 0.00 | 0.00 | 0.00 | 64 | 1007.9 |
| 20260510010801 | 82 | 152 | 4.0 | 7.0 | 0.00 | 0.00 | 0.00 | 64 | 1008.0 |
| 20260510010302 | 83 | 163 | 4.0 | 8.0 | 0.00 | 0.00 | 0.00 | 63 | 1007.9 |
| 20260510010035 | 83 | 147 | 4.0 | 9.0 | 0.00 | 0.00 | 0.00 | 61 | 1008.1 |
| 20260510005301 | 84 | 176 | 4.0 | 9.0 | 0.00 | 0.00 | 0.00 | 61 | 1008.0 |
| 20260510004801 | 84 | 194 | 4.0 | 8.0 | 0.00 | 0.00 | 0.00 | 62 | 1007.9 |
| 20260510004301 | 84 | 168 | 4.0 | 9.0 | 0.00 | 0.00 | 0.00 | 63 | 1007.9 |
| 20260510004041 | 85 | 186 | 5.0 | 9.0 | 0.00 | 0.00 | 0.00 | 62 | 1007.9 |
| 20260510003301 | 85 | 175 | 4.0 | 9.0 | 0.00 | 0.00 | 0.00 | 61 | 1007.9 |
| 20260510002801 | 85 | 178 | 4.0 | 10.0 | 0.00 | 0.00 | 0.00 | 61 | 1007.8 |
| 20260510002301 | 86 | 204 | 5.0 | 11.0 | 0.00 | 0.00 | 0.00 | 60 | 1007.8 |
| 20260510001802 | 86 | 213 | 6.0 | 11.0 | 0.00 | 0.00 | 0.00 | 60 | 1007.8 |
| 20260510001523 | 87 | 162 | 7.0 | 13.0 | 0.00 | 0.00 | 0.00 | 60 | 1007.6 |
| 20260510000801 | 87 | 215 | 6.0 | 13.0 | 0.00 | 0.00 | 0.00 | 61 | 1007.6 |
| 20260510000304 | 87 | 182 | 6.0 | 13.0 | 0.00 | 0.00 | 0.00 | 61 | 1007.5 |
| 20260509235801 | 88 | 202 | 7.0 | 13.0 | 0.00 | 0.00 | 0.00 | 60 | 1007.7 |
| 20260509235301 | 88 | 170 | 6.0 | 11.0 | 0.00 | 0.00 | 0.00 | 59 | 1007.7 |
| 20260509235023 | 89 | 182 | 5.0 | 9.0 | 0.00 | 0.00 | 0.00 | 59 | 1007.8 |
| 20260509235006 | 89 | 223 | 5.0 | 10.0 | 0.00 | 0.00 | 0.00 | 59 | 1007.8 |
| 20260509233801 | 90 | 194 | 4.0 | 9.0 | 0.00 | 0.00 | 0.00 | 58 | 1007.9 |
| 20260509233301 | 91 | 161 | 4.0 | 9.0 | 0.00 | 0.00 | 0.00 | 59 | 1007.8 |
| 20260509232800 | 91 | 209 | 4.0 | 7.0 | 0.00 | 0.00 | 0.00 | 59 | 1007.8 |
| 20260509232305 | 91 | 171 | 4.0 | 8.0 | 0.00 | 0.00 | 0.00 | 56 | 1007.6 |
| 20260509231801 | 92 | 190 | 4.0 | 8.0 | 0.00 | 0.00 | 0.00 | 55 | 1007.6 |
| 20260509231526 | 93 | 171 | 3.0 | 8.0 | 0.00 | 0.00 | 0.00 | 55 | 1007.6 |
| 20260509231034 | 93 | 253 | 1.0 | 4.0 | 0.00 | 0.00 | 0.00 | 57 | 1007.5 |
| 20260509230301 | 93 | 305 | 1.0 | 3.0 | 0.00 | 0.00 | 0.00 | 56 | 1007.6 |
| 20260509225801 | 93 | 329 | 2.0 | 3.0 | 0.00 | 0.00 | 0.00 | 57 | 1007.5 |
| 20260509225528 | 93 | 348 | 1.0 | 3.0 | 0.00 | 0.00 | 0.00 | 56 | 1007.5 |
| 20260509224800 | 93 | 5 | 1.0 | 4.0 | 0.00 | 0.00 | 0.00 | 56 | 1007.6 |
| 20260509224300 | 93 | 232 | 1.0 | 4.0 | 0.00 | 0.00 | 0.00 | 57 | 1007.5 |
| 20260509224035 | 92 | 288 | 1.0 | 2.0 | 0.00 | 0.00 | 0.00 | 58 | 1007.5 |
| 20260509223301 | 92 | 306 | 1.0 | 4.0 | 0.00 | 0.00 | 0.00 | 57 | 1007.5 |
| 20260509223034 | 92 | 317 | 1.0 | 4.0 | 0.00 | 0.00 | 0.00 | 58 | 1007.5 |
| 20260509222302 | 92 | 146 | 1.0 | 3.0 | 0.00 | 0.00 | 0.00 | 59 | 1007.7 |
| 20260509221800 | 92 | 10 | 3.0 | 6.0 | 0.00 | 0.00 | 0.00 | 58 | 1007.5 |
| 20260509221301 | 92 | 333 | 3.0 | 6.0 | 0.00 | 0.00 | 0.00 | 60 | 1007.6 |
| 20260509220800 | 92 | 346 | 2.0 | 6.0 | 0.00 | 0.00 | 0.00 | 60 | 1007.7 |
| 20260509220301 | 92 | 271 | 2.0 | 6.0 | 0.00 | 0.00 | 0.00 | 60 | 1007.6 |
| 20260509215800 | 92 | 290 | 2.0 | 3.0 | 0.00 | 0.00 | 0.00 | 61 | 1007.5 |
| 20260509215531 | 92 | 279 | 2.0 | 4.0 | 0.00 | 0.00 | 0.00 | 62 | 1007.6 |
| 20260509214801 | 92 | 331 | 2.0 | 4.0 | 0.00 | 0.00 | 0.00 | 60 | 1007.6 |
| 20260509214301 | 92 | 294 | 2.0 | 4.0 | 0.00 | 0.00 | 0.00 | 64 | 1007.6 |
| 20260509213806 | 92 | 184 | 2.0 | 4.0 | 0.00 | 0.00 | 0.00 | 60 | 1007.6 |
| 20260509213534 | 91 | 189 | 2.0 | 4.0 | 0.00 | 0.00 | 0.00 | 61 | 1007.7 |
| 20260509212807 | 91 | 311 | 2.0 | 4.0 | 0.00 | 0.00 | 0.00 | 62 | 1007.7 |
| 20260509212306 | 91 | 315 | 2.0 | 4.0 | 0.00 | 0.00 | 0.00 | 61 | 1007.7 |
| 20260509211756 | 91 | 9 | 2.0 | 4.0 | 0.00 | 0.00 | 0.00 | 62 | 1007.6 |
| 20260509211250 | 91 | 327 | 2.0 | 4.0 | 0.00 | 0.00 | 0.00 | 60 | 1007.7 |
| 20260509210743 | 91 | 327 | 2.0 | 4.0 | 0.00 | 0.00 | 0.00 | 61 | 1007.7 |
| 20260509210238 | 91 | 189 | 2.0 | 4.0 | 0.00 | 0.00 | 0.00 | 60 | 1007.7 |
| 20260509205956 | 91 | 311 | 2.0 | 5.0 | 0.00 | 0.00 | 0.00 | 63 | 1007.6 |
| 20260509205226 | 91 | 282 | 2.0 | 8.0 | 0.00 | 0.00 | 0.00 | 61 | 1007.8 |
| 20260509204720 | 90 | 0 | 2.0 | 8.0 | 0.00 | 0.00 | 0.00 | 62 | 1007.7 |
| 20260509204214 | 90 | 333 | 3.0 | 7.0 | 0.00 | 0.00 | 0.00 | 61 | 1007.7 |
| 20260509203712 | 89 | 331 | 4.0 | 10.0 | 0.00 | 0.00 | 0.00 | 64 | 1007.8 |
| 20260509203213 | 90 | 355 | 3.0 | 10.0 | 0.00 | 0.00 | 0.00 | 63 | 1007.8 |
| 20260509202713 | 90 | 340 | 2.0 | 5.0 | 0.00 | 0.00 | 0.00 | 63 | 1007.9 |
| 20260509202213 | 90 | 275 | 3.0 | 9.0 | 0.00 | 0.00 | 0.00 | 62 | 1007.9 |
| 20260509201713 | 89 | 336 | 5.0 | 9.0 | 0.00 | 0.00 | 0.00 | 64 | 1008.0 |
| 20260509201213 | 89 | 282 | 5.0 | 11.0 | 0.00 | 0.00 | 0.00 | 63 | 1008.2 |
| 20260509200712 | 89 | 355 | 3.0 | 11.0 | 0.00 | 0.00 | 0.00 | 65 | 1008.1 |
| 20260509200213 | 89 | 293 | 3.0 | 8.0 | 0.00 | 0.00 | 0.00 | 64 | 1008.3 |
| 20260509195713 | 89 | 315 | 4.0 | 8.0 | 0.00 | 0.00 | 0.00 | 66 | 1008.4 |
| 20260509195213 | 89 | 317 | 2.0 | 6.0 | 0.00 | 0.00 | 0.00 | 67 | 1008.4 |
| 20260509194712 | 89 | 295 | 3.0 | 10.0 | 0.00 | 0.00 | 0.00 | 65 | 1008.4 |
| 20260509194213 | 89 | 271 | 3.0 | 10.0 | 0.00 | 0.00 | 0.00 | 67 | 1008.6 |
| 20260509193710 | 88 | 355 | 2.0 | 7.0 | 0.00 | 0.00 | 0.00 | 65 | 1008.5 |
| 20260509193703 | 88 | 342 | 2.0 | 7.0 | 0.00 | 0.00 | 0.00 | 66 | 1008.6 |
| 20260509192710 | 88 | 288 | 3.0 | 7.0 | 0.00 | 0.00 | 0.00 | 65 | 1008.6 |
| 20260509192210 | 88 | 300 | 3.0 | 7.0 | 0.00 | 0.00 | 0.00 | 65 | 1008.8 |
| 20260509191711 | 87 | 245 | 3.0 | 7.0 | 0.00 | 0.00 | 0.00 | 65 | 1008.7 |
| 20260509191212 | 88 | 355 | 4.0 | 8.0 | 0.00 | 0.00 | 0.00 | 67 | 1008.8 |
| 20260509190711 | 87 | 255 | 5.0 | 10.0 | 0.00 | 0.00 | 0.00 | 66 | 1008.8 |
| 20260509190211 | 87 | 0 | 4.0 | 10.0 | 0.00 | 0.00 | 0.00 | 67 | 1008.8 |
| 20260509185710 | 87 | 348 | 4.0 | 11.0 | 0.00 | 0.00 | 0.00 | 67 | 1008.8 |
| 20260509185207 | 87 | 355 | 4.0 | 11.0 | 0.00 | 0.00 | 0.00 | 66 | 1008.9 |
| 20260509184707 | 87 | 349 | 3.0 | 8.0 | 0.00 | 0.00 | 0.00 | 70 | 1009.0 |
| 20260509184206 | 87 | 323 | 3.0 | 6.0 | 0.00 | 0.00 | 0.00 | 70 | 1009.0 |
| 20260509183935 | 86 | 279 | 4.0 | 6.0 | 0.00 | 0.00 | 0.00 | 71 | 1009.1 |
| 20260509183206 | 86 | 330 | 4.0 | 9.0 | 0.00 | 0.00 | 0.00 | 73 | 1009.2 |
| 20260509182937 | 85 | 28 | 4.0 | 9.0 | 0.00 | 0.00 | 0.00 | 71 | 1009.2 |
| 20260509182207 | 85 | 301 | 4.0 | 10.0 | 0.00 | 0.00 | 0.00 | 72 | 1009.1 |
| 20260509181707 | 85 | 355 | 4.0 | 10.0 | 0.00 | 0.00 | 0.00 | 74 | 1009.2 |
| 20260509181207 | 85 | 269 | 3.0 | 10.0 | 0.00 | 0.00 | 0.00 | 73 | 1009.2 |
| 20260509180707 | 85 | 306 | 3.0 | 8.0 | 0.00 | 0.00 | 0.00 | 72 | 1009.2 |
| 20260509180206 | 85 | 286 | 4.0 | 9.0 | 0.00 | 0.00 | 0.00 | 73 | 1009.2 |
| 20260509175706 | 85 | 348 | 3.0 | 9.0 | 0.00 | 0.00 | 0.00 | 75 | 1009.4 |
| 20260509175437 | 85 | 342 | 3.0 | 8.0 | 0.00 | 0.00 | 0.00 | 74 | 1009.3 |
| 20260509174710 | 84 | 320 | 2.0 | 6.0 | 0.00 | 0.00 | 0.00 | 75 | 1009.4 |
| 20260509174207 | 84 | 304 | 2.0 | 6.0 | 0.00 | 0.00 | 0.00 | 75 | 1009.5 |
| 20260509173936 | 83 | 311 | 3.0 | 7.0 | 0.00 | 0.00 | 0.00 | 77 | 1009.4 |
| 20260509173206 | 83 | 284 | 2.0 | 7.0 | 0.00 | 0.00 | 0.00 | 74 | 1009.6 |
| 20260509172705 | 83 | 355 | 1.0 | 4.0 | 0.00 | 0.00 | 0.00 | 78 | 1009.6 |
| 20260509172205 | 83 | 323 | 2.0 | 4.0 | 0.00 | 0.00 | 0.00 | 78 | 1009.6 |
| 20260509171932 | 83 | 35 | 1.0 | 4.0 | 0.00 | 0.00 | 0.00 | 79 | 1009.5 |
| 20260509171439 | 82 | 265 | 1.0 | 2.0 | 0.00 | 0.00 | 0.00 | 81 | 1009.6 |
| 20260509170705 | 82 | 300 | 1.0 | 5.0 | 0.00 | 0.00 | 0.00 | 82 | 1009.4 |
| 20260509170201 | 81 | 300 | 3.0 | 8.0 | 0.00 | 0.00 | 0.00 | 81 | 1009.4 |
| 20260509165702 | 81 | 345 | 3.0 | 8.0 | 0.00 | 0.00 | 0.00 | 82 | 1009.4 |
| 20260509165201 | 80 | 0 | 1.0 | 3.0 | 0.00 | 0.00 | 0.00 | 81 | 1009.6 |
| 20260509164700 | 80 | 115 | 1.0 | 3.0 | 0.00 | 0.00 | 0.00 | 82 | 1009.7 |
| 20260509164202 | 80 | 84 | 2.0 | 4.0 | 0.00 | 0.00 | 0.00 | 81 | 1009.9 |
| 20260509163702 | 80 | 134 | 2.0 | 5.0 | 0.00 | 0.00 | 0.00 | 83 | 1009.9 |
| 20260509163205 | 79 | 114 | 3.0 | 6.0 | 0.00 | 0.00 | 0.00 | 83 | 1009.8 |
| 20260509162701 | 79 | 191 | 3.0 | 6.0 | 0.00 | 0.00 | 0.00 | 84 | 1009.8 |
| 20260509162431 | 79 | 128 | 3.0 | 7.0 | 0.00 | 0.00 | 0.00 | 84 | 1009.8 |
| 20260509161701 | 79 | 194 | 4.0 | 8.0 | 0.00 | 0.00 | 0.00 | 85 | 1009.7 |
| 20260509161201 | 78 | 155 | 5.0 | 9.0 | 0.00 | 0.00 | 0.00 | 84 | 1009.8 |
| 20260509160701 | 78 | 126 | 4.0 | 9.0 | 0.00 | 0.00 | 0.00 | 85 | 1009.9 |
| 20260509160202 | 78 | 148 | 5.0 | 8.0 | 0.00 | 0.00 | 0.00 | 85 | 1009.6 |
| 20260509155701 | 78 | 157 | 6.0 | 10.0 | 0.00 | 0.00 | 0.00 | 85 | 1009.7 |
| 20260509155202 | 78 | 157 | 7.0 | 11.0 | 0.00 | 0.00 | 0.00 | 85 | 1009.7 |
| 20260509154700 | 78 | 121 | 5.0 | 11.0 | 0.00 | 0.00 | 0.00 | 86 | 1009.6 |
| 20260509154201 | 78 | 128 | 5.0 | 9.0 | 0.00 | 0.00 | 0.00 | 87 | 1009.7 |
| 20260509153935 | 77 | 154 | 5.0 | 9.0 | 0.00 | 0.00 | 0.00 | 89 | 1009.6 |
| 20260509153203 | 77 | 149 | 5.0 | 8.0 | 0.00 | 0.00 | 0.00 | 90 | 1009.4 |
| 20260509153152 | 77 | 109 | 6.0 | 10.0 | 0.00 | 0.00 | 0.00 | 91 | 1009.2 |
| 20260509152203 | 77 | 128 | 7.0 | 12.0 | 0.00 | 0.00 | 0.00 | 91 | 1009.0 |
| 20260509151702 | 77 | 133 | 6.0 | 12.0 | 0.00 | 0.00 | 0.00 | 92 | 1008.8 |
| 20260509151201 | 76 | 115 | 6.0 | 8.0 | 0.00 | 0.00 | 0.00 | 92 | 1008.9 |
| 20260509150701 | 76 | 103 | 4.0 | 8.0 | 0.00 | 0.00 | 0.00 | 92 | 1009.1 |
| 20260509150204 | 76 | 113 | 2.0 | 6.0 | 0.00 | 0.00 | 0.00 | 93 | 1009.7 |
| 20260509145704 | 76 | 90 | 2.0 | 4.0 | 0.00 | 0.00 | 0.00 | 94 | 1009.9 |
| 20260509145201 | 76 | 113 | 2.0 | 4.0 | 0.00 | 0.00 | 0.00 | 94 | 1010.0 |
| 20260509144701 | 75 | 119 | 2.0 | 4.0 | 0.00 | 0.00 | 0.00 | 95 | 1010.0 |
| 20260509144201 | 75 | 109 | 3.0 | 6.0 | 0.00 | 0.00 | 0.00 | 95 | 1009.9 |
| 20260509143701 | 75 | 119 | 4.0 | 8.0 | 0.00 | 0.00 | 0.00 | 96 | 1010.2 |
| 20260509143201 | 75 | 94 | 3.0 | 8.0 | 0.00 | 0.00 | 0.00 | 96 | 1009.8 |
| 20260509142701 | 75 | 90 | 1.0 | 5.0 | 0.00 | 0.00 | 0.00 | 97 | 1009.9 |
| 20260509142202 | 74 | 71 | 1.0 | 3.0 | 0.00 | 0.00 | 0.00 | 97 | 1009.7 |
| 20260509141657 | 74 | 71 | 2.0 | 3.0 | 0.00 | 0.00 | 0.00 | 97 | 1009.7 |
| 20260509141151 | 74 | 107 | 2.0 | 3.0 | 0.00 | 0.00 | 0.00 | 97 | 1009.9 |
| 20260509140645 | 74 | 336 | 1.0 | 3.0 | 0.00 | 0.00 | 0.00 | 97 | 1009.9 |
| 20260509140138 | 74 | 355 | 2.0 | 8.0 | 0.00 | 0.00 | 0.00 | 97 | 1009.2 |
| 20260509135633 | 74 | 355 | 3.0 | 8.0 | 0.00 | 0.00 | 0.00 | 98 | 1009.0 |
| 20260509135131 | 74 | 246 | 5.0 | 21.0 | 0.00 | 0.00 | 0.00 | 98 | 1009.2 |
| 20260509134631 | 74 | 355 | 8.0 | 21.0 | 0.00 | 0.00 | 0.00 | 98 | 1008.8 |
| 20260509134131 | 74 | 323 | 7.0 | 14.0 | 0.00 | 0.00 | 0.00 | 98 | 1008.3 |
| 20260509133632 | 74 | 0 | 8.0 | 17.0 | 0.00 | 0.00 | 0.00 | 98 | 1008.4 |
| 20260509133131 | 74 | 143 | 10.0 | 17.0 | 0.00 | 0.00 | 0.00 | 98 | 1007.7 |
| 20260509132631 | 74 | 146 | 10.0 | 18.0 | 0.00 | 0.01 | 0.00 | 98 | 1007.7 |
| 20260509132130 | 74 | 155 | 10.0 | 18.0 | 0.00 | 0.01 | 0.00 | 98 | 1007.8 |
| 20260509131630 | 73 | 125 | 7.0 | 15.0 | 0.00 | 0.01 | 0.00 | 98 | 1008.0 |
| 20260509131130 | 73 | 123 | 4.0 | 8.0 | 0.00 | 0.01 | 0.00 | 98 | 1008.9 |
| 20260509130629 | 73 | 123 | 3.0 | 8.0 | 0.00 | 0.01 | 0.00 | 98 | 1009.1 |
| 20260509130133 | 73 | 113 | 2.0 | 4.0 | 0.00 | 0.01 | 0.00 | 98 | 1009.4 |
| 20260509125633 | 73 | 355 | 2.0 | 3.0 | 0.00 | 0.01 | 0.00 | 98 | 1010.3 |
| 20260509125132 | 73 | 324 | 2.0 | 6.0 | 0.00 | 0.01 | 0.00 | 98 | 1010.2 |
| 20260509124630 | 73 | 126 | 3.0 | 6.0 | 0.00 | 0.01 | 0.00 | 98 | 1009.7 |
| 20260509124129 | 73 | 113 | 2.0 | 4.0 | 0.00 | 0.01 | 0.00 | 97 | 1009.4 |
| 20260509123629 | 73 | 123 | 1.0 | 3.0 | 0.00 | 0.01 | 0.00 | 97 | 1009.5 |
| 20260509123129 | 73 | 107 | 0.0 | 3.0 | 0.00 | 0.01 | 0.00 | 97 | 1009.8 |
| 20260509122626 | 73 | 159 | 0.0 | 1.0 | 0.00 | 0.01 | 0.00 | 97 | 1010.1 |
| 20260509122119 | 73 | 159 | 0.0 | 1.0 | 0.00 | 0.01 | 0.00 | 97 | 1010.2 |
| 20260509121614 | 73 | 159 | 1.0 | 4.0 | 0.00 | 0.01 | 0.00 | 98 | 1010.4 |
| 20260509121336 | 73 | 159 | 2.0 | 5.0 | 0.00 | 0.01 | 0.00 | 97 | 1010.2 |
| 20260509120606 | 73 | 148 | 3.0 | 5.0 | 0.00 | 0.01 | 0.00 | 97 | 1010.0 |
| 20260509120332 | 73 | 149 | 2.0 | 5.0 | 0.00 | 0.01 | 0.00 | 97 | 1010.1 |
| 20260509115606 | 73 | 150 | 1.0 | 3.0 | 0.00 | 0.01 | 0.00 | 98 | 1010.4 |
| 20260509115106 | 72 | 201 | 2.0 | 4.0 | 0.00 | 0.01 | 0.00 | 98 | 1010.6 |
| 20260509114604 | 72 | 182 | 2.0 | 4.0 | 0.00 | 0.01 | 0.00 | 97 | 1010.4 |
| 20260509114104 | 72 | 175 | 2.0 | 4.0 | 0.00 | 0.01 | 0.00 | 97 | 1010.3 |
| 20260509113604 | 72 | 191 | 2.0 | 4.0 | 0.00 | 0.01 | 0.00 | 97 | 1010.2 |
| 20260509113333 | 72 | 172 | 2.0 | 3.0 | 0.00 | 0.01 | 0.00 | 97 | 1010.1 |
| 20260509112604 | 72 | 184 | 1.0 | 3.0 | 0.00 | 0.01 | 0.00 | 97 | 1010.0 |
| 20260509112104 | 72 | 355 | 0.0 | 1.0 | 0.00 | 0.01 | 0.00 | 97 | 1009.9 |
| 20260509111604 | 72 | 355 | 0.0 | 2.0 | 0.00 | 0.01 | 0.00 | 97 | 1009.7 |
| 20260509111104 | 72 | 328 | 1.0 | 3.0 | 0.00 | 0.01 | 0.00 | 97 | 1009.6 |
| 20260509110606 | 72 | 355 | 1.0 | 3.0 | 0.00 | 0.01 | 0.00 | 97 | 1009.7 |
| 20260509110105 | 72 | 320 | 1.0 | 3.0 | 0.00 | 0.01 | 0.00 | 97 | 1009.6 |
| 20260509105602 | 72 | 320 | 1.0 | 3.0 | 0.00 | 0.01 | 0.00 | 97 | 1009.4 |